カタログに戻る

SL-12 DEB

LostHEO
NORAD 29344·DEBRIS·🇷🇺 Russia

打ち上げ May 31, 1989 から Baikonur Cosmodrome

Loading…

次のパス (今後24時間)

TLE

古いSource: Space-Track

元期: Nov 4, 2006, 21:47 UTC

1 29344U 89039BB  06308.90812811  .00012417  00000-0  36735-1 0  9998
2 29344  65.7091 238.6096 5632700  61.9407 348.9811  4.35923808  5265

AllMySatでSL-12 DEBをリアルタイム追跡

Download on the App Store